Regional Weather Roundup
Issued by NWS Upton, NY

Current Version | Previous Version | Text Only | Print | Product List | Glossary Off
Versions: 1 2 3 4 5 6 7 8 9 10 11 12 13 14 15 16 17 18 19 20 21 22 23 24 25 26 27 28 29 30 31 32 33 34 35 36 37 38 39 40 41 42 43 44 45 46 47 48 49 50
000 ASUS41 KOKX 301808 RWROKX REGIONAL WEATHER ROUNDUP NATIONAL WEATHER SERVICE NEW YORK NY 200 PM EDT FRI SEP 30 2016 NOTE: "FAIR" INDICATES FEW OR NO CLOUDS BELOW 12,000 FEET WITH NO SIGNIFICANT WEATHER AND/OR OBSTRUCTIONS TO VISIBILITY. NYZ071-072-176-178-NJZ106-104-301900- NEW YORK CITY METRO AREA CITY SKY/WX TMP DP RH WIND PRES REMARKS Central Park LGT RAIN 59 56 89 NE10G17 30.29F FOG LaGuardia APRT LGT RAIN 61 58 90 NE15G23 30.26F FOG Kennedy INTL LGT RAIN 61 58 90 NE21G29 30.25F FOG Newark/Liberty LGT RAIN 59 57 93 N14 30.27F FOG Bronx Bot Gard N/A 57 55 94 N3 30.28F Wall St Helipt CLOUDY 63 61 94 NE16G26 30.27S Teterboro LGT RAIN 60 54 80 NE8G17 30.27F $$ NYZ177-179-078>081-301900- LONG ISLAND NEW YORK CITY SKY/WX TMP DP RH WIND PRES REMARKS Farmingdale LGT RAIN 61 58 90 NE17G30 30.25F MacArthur/ISP LGT RAIN 60 58 92 NE17G24 30.27F FOG Shirley LGT RAIN 59 58 96 NE9 30.28F FOG Riverhead NOT AVBL Westhampton LGT RAIN 60 56 86 NE20G35 30.29F Southampton N/A 61 59 94 NE14 30.25F Bridgehampton N/A 59 57 94 S6 30.16F East Hampton CLOUDY 59 56 90 NE16G25 30.30F Montauk N/A 60 58 92 NE14G28 30.32F $$ NYZ052-065-067-301900- HUDSON VALLEY CITY SKY/WX TMP DP RH WIND PRES REMARKS White Plains LGT RAIN 58 55 90 NE9 30.28F Newburgh DRIZZLE 61 54 77 E16G28 30.34F FOG Montgomery CLOUDY 60 53 77 NE12 30.31F Poughkeepsie CLOUDY 60 50 69 NE13G22 30.32F Albany CLOUDY 63 43 48 NE9 30.38F $$ NJZ001-105-106-008-010-013-015-019>022-104-301900- NEW JERSEY CITY SKY/WX TMP DP RH WIND PRES REMARKS Newark/Liberty LGT RAIN 59 57 93 N14 30.27F FOG Teterboro LGT RAIN 60 54 80 NE8G17 30.27F Caldwell LGT RAIN 59 55 87 NE12 30.29F FOG Morristown LGT RAIN 59 57 94 NE12G20 30.28F FOG Somerville CLOUDY 60 54 80 NE7 30.25F Linden NOT AVBL Sussex LGT RAIN 56 55 97 NE9 30.30F FOG Abdover N/A 56 54 93 NE7 30.28F Trenton CLOUDY 60 57 89 NE16 30.23F FOG Millville CLOUDY 65 65 100 NE15 30.16F Atlantic City CLOUDY 64 62 93 NE24G30 30.16F FOG Wrightstown CLOUDY 63 61 94 NE18G26 30.18S Toms River LGT RAIN 63 61 93 NE20G32 30.22F FOG Belmar LGT RAIN 61 60 97 NE17G25 30.24S FOG $$ PAZ047>061-062-071-301900- EASTERN PENNSYLVANIA CITY SKY/WX TMP DP RH WIND PRES REMARKS Philadelphia DRIZZLE 62 60 93 NE14 30.20F FOG Allentown CLOUDY 58 53 84 NE18G26 30.25F Scranton CLOUDY 57 51 80 E13G20 30.27F $$ CTZ002-004>006-009-010-012-RIZ004-006-007-MAZ004-011-015-301900- SOUTHERN NEW ENGLAND IN CT CITY SKY/WX TMP DP RH WIND PRES REMARKS Bradley INTL CLOUDY 61 48 62 NE15 30.38F Hartford LGT RAIN 61 51 70 NE14 30.36F Danbury RAIN 56 53 90 NE8 30.33F FOG Wtrbury/Oxford CLOUDY 57 48 72 MISG 30.35F Bridgeport LGT RAIN 61 56 83 NE15 30.30F Meriden LGT RAIN 60 53 77 NE7 30.35F New Haven RAIN 59 55 87 NE14 30.31F Chester LGT RAIN 59 54 82 NE8G16 30.34F Groton LGT RAIN 62 56 80 NE17 30.32F Wilimantic LGT RAIN 58 55 90 NE9 30.38S IN RI CITY SKY/WX TMP DP RH WIND PRES REMARKS Providence LGT RAIN 61 52 72 E17G26 30.39F Block Island LGT RAIN 59 57 93 NE22G30 30.32F FOG Westerly LGT RAIN 60 54 80 NE12 30.34F IN MA CITY SKY/WX TMP DP RH WIND PRES REMARKS Boston CLOUDY 59 51 75 NE18 30.44F Worcester CLOUDY 54 47 77 NE9G17 30.40F Westfield CLOUDY 60 49 66 NE12G21 30.39F Provincetown CLOUDY 61 54 77 E13G20 30.42F Nantucket LGT RAIN 60 56 86 NE20G29 30.33F FOG $$ ANZ330-335-338-340-345-350-353-355-301900- COASTAL MARINE OBSERVATIONS STATION/POSITION TIME SKY/WX TEMP WIND PRES VSBY WAVE AIR SEA DIR/SP/G HT/PER (UTC) (F) (DEG/KT/KT) (MB) (MI) (FT/S) NY HARB ENTRANCE 1750 63 69 50/ 29/ 35 1022.2 11/10 20S FIRE ISLAND 1750 62 67 60/ 31/ 37 1021.4 14/ 9 GREAT SOUTH BAY 1730 61 64 60/ 14/ 31 N/A 23 SSW MONTAUK P 1750 61 64 60/ 29/ 35 1024.3 11/ 8 15 E BARNEGAT LI 1730 69 N/A 14/10 HUDSON CANYON 1650 69 70 1020.1 14/ 9 KINGS POINT 1742 60 69 1024.6 EXECUTION ROCKS 1745 61 40/ 19/ 27 N/A CENTRAL LI SOUND NOT AVBL EASTERN LI SOUND NOT AVBL ROBBINS REEF 1742 61 50/ 21/ 25 1024.7 $$ >>>>>>>>>>>>>>>>>>>>>>>>>>>> KEY <<<<<<<<<<<<<<<<<<<<<<<<<<< > < > SKY/WX - Sky Condition/Present Weather < > TMP - Temperature in Fahrenheit < > DP - Dew Point in Fahrenheit < > RH - Relative Humidity in Percent < > WIND - Direction (from) and Speed in MPH < > PRES - Mean Sea Level Pressure (inches of Hg) < > WCI - Wind Chill Index < > VSB - VISIBILITY IN MILES < > HX - HEAT INDEX < > TC - TEMPERATURE IN CELSIUS < > VRB - VARIABLE WIND DIRECTION < > < >>>>>>>>>>>>>>>>>>>>>>>>>>>> KEY <<<<<<<<<<<<<<<<<<<<<<<<<<<

USA.gov is the U.S. government's official web portal to all federal, state and local government web resources and services.